[[{"header":{"parameterUnit":"m.s-1","parameterCategory":1,"la1":30.2991,"la2":30.254,"lo1":-89.0895,"lo2":-89.0444,"dy":0.0017,"dx":0.0017,"nx":28,"ny":28,"refTime":"2023-08-18T21:00:00:Z","depth":0,"parameterNumber":2,"parameterNumberName":"U-component_of_WINDS"},"data":[0,0,0,0,0,0,0,0,0,0,0,0,0,0,0,0,0,0,0,0,0,0,0,0,0,0,0,0,0,0,0,0,0,0,0,0,0,0,0,0,0,0,0,0,0,0,0,0,0,0,0,0,0,0,0,0,0,0,0.2216,0.2215,0,0.2159,0.2159,0.2158,0.2084,0.2083,0.2082,0.2081,0.2026,0.2025,0.2025,0,0,0,0,0,0,0,0,0,0,0,0,0,0.226,0.226,0.2216,0.2215,0.2214,0.216,0.2159,0.2158,0.2085,0.2083,0.2082,0.208,0.2026,0.2025,0.2025,0,0,0,0,0,0,0,0,0,0,0,0,0,0.2226,0.226,0.2216,0.2171,0.2166,0.216,0.2159,0.2158,0.2085,0.2083,0.2081,0.2079,0.2026,0.2025,0.2025,0.2059,0,0,0.2023,0.2023,0,0,0,0,0,0,0,0,0.2228,0.2225,0.2178,0.2174,0.2169,0.2127,0.2154,0.2125,0.2085,0.2116,0.2081,0.2079,0.2061,0.2058,0.2051,0.2056,0.2054,0.2023,0.2023,0.2023,0.2023,0,0,0,0,0,0,0,0.2231,0.2227,0.2193,0.2178,0.2172,0.2154,0.2147,0.2148,0.21,0.2113,0.2108,0.2102,0.2058,0.2052,0.2049,0.2053,0.2023,0.2023,0.2023,0.2022,0.2081,0.2082,0,0,0,0,0,0,0.224,0.2229,0.2195,0.2192,0.2195,0.2155,0.2147,0.2142,0.2099,0.2091,0.2103,0.2099,0.2053,0.205,0.2047,0.2082,0.2023,0.2022,0.2022,0.2079,0.2081,0.2083,0,0,0,0,0,0,0.2241,0.2237,0.2198,0.2209,0.2202,0.2156,0.2151,0.2142,0.2136,0.2092,0.2083,0.2106,0.2052,0.2048,0.2056,0.2079,0.2022,0.2022,0.2077,0.208,0.2082,0.2154,0,0,0,0,0,0,0.2243,0.2238,0.225,0.221,0.2202,0.2207,0.2153,0.2142,0.2135,0.2128,0.2092,0.2084,0.205,0.2057,0.2055,0.2078,0.2021,0.2074,0.2078,0.2081,0.2149,0.2159,0.2167,0,0,0,0,0,0.2244,0.2274,0.2251,0.2248,0.2216,0.2209,0.2204,0.2164,0.2137,0.2149,0.212,0.2085,0.2077,0.2058,0.2056,0.2079,0.2073,0.2077,0.2081,0.2145,0.2157,0.2167,0,0,0,0,0,0,0.232,0.2268,0.2242,0.2259,0.2239,0.2196,0.221,0.2178,0.2165,0.2159,0.2111,0.2103,0.2117,0.2098,0.2078,0.2108,0.207,0.2073,0.2119,0.213,0.2139,0.2143,0.2021,0,0,0,0,0,0.2338,0.2335,0.229,0.231,0.2301,0.2257,0.2252,0.2223,0.22,0.2191,0.2163,0.2143,0.2135,0.2132,0.2123,0.2146,0.2137,0.2161,0.217,0.2177,0.2181,0.2191,0.22,0.2097,0.2097,0.2097,0,0,0.2376,0.2348,0.2349,0.2324,0.2305,0.2303,0.2251,0.2252,0.225,0.2192,0.2197,0.2176,0.215,0.2165,0.2171,0.215,0.2207,0.2182,0.2189,0.2188,0.2196,0.2206,0.2215,0.21,0.2099,0.2099,0,0,0.2445,0.2424,0.2437,0.2418,0.2389,0.2359,0.2362,0.2324,0.2308,0.2312,0.2267,0.2265,0.2254,0.2236,0.2226,0.2287,0.2254,0.2286,0.2332,0.2342,0.2351,0.2358,0.2378,0.2387,0.229,0.229,0.229,0,0.2497,0.2492,0.2448,0.2451,0.2441,0.2387,0.2399,0.2383,0.2353,0.2348,0.2325,0.2309,0.2287,0.2297,0.2312,0.2306,0.2308,0.229,0.2353,0.2359,0.2365,0.2385,0.2393,0.2294,0.2294,0.2293,0.2293,0,0.2557,0.2554,0.2568,0.2539,0.2531,0.2539,0.2496,0.2492,0.2464,0.2437,0.2441,0.2413,0.2397,0.2397,0.237,0.2403,0.2391,0.2362,0.2322,0.238,0.2397,0.2404,0.23,0.2298,0.2297,0.2296,0,0,0.2672,0.2617,0.2623,0.2608,0.2571,0.2569,0.2574,0.2557,0.2555,0.2536,0.2539,0.253,0.2501,0.249,0.246,0.2469,0.2517,0.2437,0.2436,0.2453,0.2551,0.2574,0.2583,0.2495,0.2496,0.2497,0.2553,0,0.2733,0.2739,0.2698,0.2715,0.2711,0.2659,0.2664,0.2642,0.2616,0.261,0.2582,0.2576,0.254,0.2532,0.2539,0.251,0.2536,0.2506,0.2497,0.2498,0.2505,0.2592,0.2616,0.267,0.256,0.2561,0.2562,0,0.2806,0.2789,0.2805,0.2766,0.2763,0.2768,0.2748,0.2743,0.2717,0.2698,0.2684,0.2649,0.2651,0.2614,0.2616,0.2596,0.259,0.2576,0.2577,0.2574,0.2533,0.2591,0.2686,0.2694,0.2572,0.2571,0.2571,0,0.2887,0.2869,0.2875,0.2865,0.282,0.2824,0.2806,0.2777,0.2769,0.2752,0.2747,0.2731,0.2722,0.2711,0.2672,0.2648,0.2679,0.2638,0.2663,0.2664,0.2671,0.2671,0.2766,0.2669,0.2669,0.2669,0.2668,0,0.296,0.2971,0.2911,0.2915,0.2926,0.288,0.2892,0.2869,0.2844,0.2842,0.2797,0.2796,0.2745,0.274,0.271,0.2716,0.2712,0.2697,0.2689,0.27,0.2702,0.2696,0.2691,0.2671,0.267,0.267,0.2669,0,0.3052,0.3013,0.3016,0.2973,0.2962,0.2972,0.2935,0.2937,0.2908,0.2907,0.2904,0.286,0.285,0.281,0.2792,0.2771,0.2787,0.2772,0.2796,0.279,0.2817,0.2815,0.2911,0.292,0.2818,0.2819,0.282,0,0.3101,0.3108,0.3065,0.306,0.3044,0.3037,0.3028,0.2982,0.2975,0.2944,0.295,0.2937,0.2923,0.2911,0.2877,0.2862,0.2845,0.288,0.2843,0.2854,0.2845,0.2844,0.2845,0.2888,0.2889,0.289,0.2891,0,0.3191,0.3171,0.3159,0.3141,0.3131,0.3114,0.3095,0.3094,0.3043,0.3037,0.3026,0.3015,0.2995,0.2983,0.2962,0.2943,0.2909,0.2903,0.2908,0.292,0.2933,0.2925,0.2817,0.2901,0.29,0.2899,0.2899,0.2898,0.3262,0.3266,0.3236,0.3224,0.3205,0.3187,0.3187,0.3157,0.3147,0.3127,0.31,0.3093,0.3065,0.3033,0.3017,0.301,0.2991,0.2998,0.3,0.3002,0.3008,0.2935,0.3007,0.3006,0.3006,0.3006,0.3005,0,0.3349,0.3327,0.3317,0.329,0.3281,0.3249,0.3225,0.322,0.3213,0.319,0.3178,0.3165,0.3151,0.3116,0.31,0.3101,0.3085,0.3098,0.3097,0.3093,0.3027,0.3024,0.3111,0.3111,0.3111,0.3111,0.3111,0.3111,0.3393,0.3397,0.3373,0.3367,0.3344,0.3336,0.3325,0.3309,0.329,0.3277,0.3265,0.3242,0.3214,0.3195,0.3181,0.3171,0.3167,0.3185,0.317,0.3108,0.3098,0.3089,0.3085,0.3185,0.3185,0.3237,0.3238,0.3238]},{"header":{"parameterUnit":"m.s-1","parameterCategory":1,"la1":30.2991,"la2":30.254,"lo1":-89.0895,"lo2":-89.0444,"dy":0.0017,"dx":0.0017,"nx":28,"ny":28,"refTime":"2023-08-18T21:00:00:Z","depth":0,"parameterNumber":3,"parameterNumberName":"V-component_of_WINDS"},"data":[0,0,0,0,0,0,0,0,0,0,0,0,0,0,0,0,0,0,0,0,0,0,0,0,0,0,0,0,0,0,0,0,0,0,0,0,0,0,0,0,0,0,0,0,0,0,0,0,0,0,0,0,0,0,0,0,0,0,-1.1327,-1.1327,0,-1.132,-1.132,-1.132,-1.1307,-1.1307,-1.1306,-1.1306,-1.13,-1.13,-1.13,0,0,0,0,0,0,0,0,0,0,0,0,0,-1.1329,-1.1329,-1.1327,-1.1327,-1.1327,-1.132,-1.132,-1.132,-1.1307,-1.1307,-1.1306,-1.1306,-1.13,-1.13,-1.13,0,0,0,0,0,0,0,0,0,0,0,0,0,-1.1325,-1.1329,-1.1327,-1.1319,-1.1319,-1.132,-1.132,-1.132,-1.1307,-1.1307,-1.1306,-1.1306,-1.13,-1.13,-1.13,-1.1309,0,0,-1.13,-1.13,0,0,0,0,0,0,0,0,-1.1326,-1.1325,-1.1321,-1.132,-1.1319,-1.1314,-1.1318,-1.1316,-1.1307,-1.1311,-1.1306,-1.1306,-1.1305,-1.1305,-1.1304,-1.1308,-1.1308,-1.13,-1.13,-1.1301,-1.1301,0,0,0,0,0,0,0,-1.1326,-1.1326,-1.1324,-1.1321,-1.132,-1.1317,-1.1316,-1.1318,-1.1311,-1.1311,-1.131,-1.131,-1.1304,-1.1304,-1.1304,-1.1308,-1.13,-1.13,-1.1301,-1.1301,-1.1319,-1.1319,0,0,0,0,0,0,-1.1327,-1.1326,-1.1324,-1.1324,-1.1321,-1.1317,-1.1316,-1.1316,-1.131,-1.1309,-1.131,-1.1309,-1.1304,-1.1304,-1.1304,-1.1314,-1.1301,-1.1301,-1.1301,-1.1319,-1.1319,-1.132,0,0,0,0,0,0,-1.1327,-1.1327,-1.1325,-1.1325,-1.1324,-1.1317,-1.1318,-1.1316,-1.1316,-1.1309,-1.1308,-1.1311,-1.1304,-1.1304,-1.1308,-1.1313,-1.1301,-1.1301,-1.1318,-1.1319,-1.1319,-1.1333,0,0,0,0,0,0,-1.1327,-1.1327,-1.133,-1.1325,-1.1324,-1.1329,-1.1318,-1.1316,-1.1316,-1.1315,-1.131,-1.1309,-1.1304,-1.1307,-1.1308,-1.1313,-1.1301,-1.1318,-1.1318,-1.1319,-1.1332,-1.1334,-1.1336,0,0,0,0,0,-1.1327,-1.1334,-1.1331,-1.133,-1.1328,-1.1329,-1.1329,-1.1322,-1.1317,-1.132,-1.1316,-1.1309,-1.1313,-1.1308,-1.1308,-1.1314,-1.1317,-1.1318,-1.1319,-1.1332,-1.1334,-1.1336,0,0,0,0,0,0,-1.1341,-1.1334,-1.1329,-1.1335,-1.1332,-1.1327,-1.133,-1.1325,-1.1324,-1.1323,-1.1315,-1.1314,-1.1319,-1.1317,-1.1312,-1.1322,-1.1314,-1.1315,-1.1323,-1.1326,-1.1327,-1.1328,-1.1301,0,0,0,0,0,-1.1344,-1.1346,-1.1339,-1.1345,-1.1344,-1.1337,-1.1338,-1.1333,-1.133,-1.1329,-1.1326,-1.1323,-1.1324,-1.1325,-1.1325,-1.1332,-1.1331,-1.1336,-1.1338,-1.1339,-1.134,-1.1344,-1.1347,-1.1323,-1.1323,-1.1323,0,0,-1.1352,-1.1348,-1.1349,-1.1347,-1.1345,-1.1347,-1.1337,-1.1339,-1.134,-1.133,-1.1333,-1.133,-1.1328,-1.1333,-1.1336,-1.1331,-1.1347,-1.1341,-1.1342,-1.1342,-1.1346,-1.1348,-1.135,-1.1323,-1.1323,-1.1323,0,0,-1.1366,-1.1363,-1.1368,-1.1366,-1.1362,-1.1358,-1.1359,-1.1354,-1.1352,-1.1355,-1.1348,-1.1349,-1.135,-1.1349,-1.1348,-1.1362,-1.1356,-1.1363,-1.1372,-1.1376,-1.1378,-1.138,-1.1385,-1.1387,-1.1364,-1.1364,-1.1364,0,-1.1376,-1.1378,-1.1371,-1.1373,-1.1373,-1.1364,-1.1368,-1.1366,-1.1364,-1.1364,-1.1359,-1.136,-1.1358,-1.1363,-1.1367,-1.1366,-1.1367,-1.1363,-1.1379,-1.138,-1.1381,-1.1387,-1.1389,-1.1364,-1.1364,-1.1364,-1.1364,0,-1.139,-1.1392,-1.1396,-1.1393,-1.1393,-1.1397,-1.139,-1.1391,-1.1386,-1.1383,-1.1386,-1.1383,-1.1382,-1.1383,-1.1379,-1.1388,-1.1386,-1.138,-1.1372,-1.1385,-1.1389,-1.1391,-1.1365,-1.1365,-1.1365,-1.1365,0,0,-1.1413,-1.1406,-1.1408,-1.1407,-1.1402,-1.1404,-1.1407,-1.1406,-1.1407,-1.1406,-1.1409,-1.141,-1.1405,-1.1404,-1.1399,-1.1402,-1.1414,-1.1396,-1.1396,-1.14,-1.1425,-1.1429,-1.1432,-1.141,-1.1411,-1.1411,-1.1425,0,-1.1426,-1.1432,-1.1425,-1.1432,-1.1434,-1.1425,-1.1428,-1.1426,-1.1422,-1.1423,-1.1419,-1.1421,-1.1413,-1.1413,-1.1416,-1.1412,-1.1419,-1.1411,-1.1413,-1.1413,-1.1414,-1.1434,-1.1439,-1.1453,-1.1427,-1.1427,-1.1427,0,-1.1443,-1.1442,-1.1449,-1.1445,-1.1445,-1.1448,-1.1447,-1.1448,-1.1446,-1.1443,-1.1442,-1.1436,-1.144,-1.1432,-1.1436,-1.1431,-1.1431,-1.143,-1.143,-1.143,-1.1421,-1.1435,-1.1457,-1.1459,-1.143,-1.143,-1.143,0,-1.1459,-1.146,-1.1464,-1.1463,-1.1458,-1.146,-1.1458,-1.1456,-1.1456,-1.1455,-1.1455,-1.1455,-1.1455,-1.1455,-1.1449,-1.1444,-1.1455,-1.1446,-1.1453,-1.1453,-1.1456,-1.1456,-1.1478,-1.1455,-1.1455,-1.1455,-1.1455,0,-1.1475,-1.148,-1.1471,-1.1474,-1.1479,-1.1472,-1.1477,-1.1474,-1.1472,-1.1474,-1.1466,-1.1468,-1.1461,-1.1462,-1.1458,-1.1462,-1.1462,-1.146,-1.1459,-1.1461,-1.1462,-1.1462,-1.1461,-1.1456,-1.1456,-1.1456,-1.1456,0,-1.1494,-1.1489,-1.1493,-1.1488,-1.1487,-1.1491,-1.1486,-1.1489,-1.1485,-1.1488,-1.1488,-1.1482,-1.1483,-1.1478,-1.1478,-1.1475,-1.1482,-1.1479,-1.1483,-1.1482,-1.1489,-1.1489,-1.1513,-1.1516,-1.1491,-1.1491,-1.1491,0,-1.1505,-1.1509,-1.1504,-1.1505,-1.1503,-1.1505,-1.1505,-1.1498,-1.1498,-1.1496,-1.1499,-1.1499,-1.1499,-1.1502,-1.1498,-1.1498,-1.1496,-1.1504,-1.1496,-1.1498,-1.1496,-1.1496,-1.1497,-1.1506,-1.1506,-1.1506,-1.1506,0,-1.1525,-1.1522,-1.1523,-1.1522,-1.1523,-1.1522,-1.1521,-1.1522,-1.1515,-1.1516,-1.1517,-1.1517,-1.1517,-1.1518,-1.1518,-1.1516,-1.151,-1.1509,-1.1511,-1.1513,-1.1515,-1.1514,-1.1488,-1.1509,-1.1508,-1.1508,-1.1508,-1.1508,-1.1541,-1.1543,-1.1541,-1.1541,-1.154,-1.1539,-1.1541,-1.1537,-1.1538,-1.1538,-1.1534,-1.1536,-1.1534,-1.1532,-1.1531,-1.1533,-1.1529,-1.1531,-1.1532,-1.1533,-1.1534,-1.1515,-1.1533,-1.1533,-1.1533,-1.1533,-1.1532,0,-1.156,-1.1558,-1.1559,-1.1558,-1.1558,-1.1553,-1.1551,-1.1552,-1.1554,-1.1552,-1.1553,-1.1554,-1.1555,-1.1551,-1.1552,-1.1554,-1.1551,-1.1554,-1.1554,-1.1554,-1.1537,-1.1536,-1.1556,-1.1556,-1.1556,-1.1556,-1.1556,-1.1556,-1.1571,-1.1575,-1.1572,-1.1576,-1.1573,-1.1575,-1.1575,-1.1574,-1.1573,-1.1575,-1.1576,-1.1573,-1.157,-1.1571,-1.1571,-1.157,-1.1571,-1.1575,-1.1573,-1.1557,-1.1555,-1.1553,-1.1552,-1.1575,-1.1575,-1.1589,-1.1589,-1.1589]}]]